Location: Campillo
(40.8621°N, 4.2488°W)
Time: 15:14:08
(UTC+00:00)

Cosmos 1777 Rocket - Pass Details

Date: 29 September 2021
Orbit: 759 x 775 km, 74.0° (Epoch: 18 October)

Event Time Altitude Azimuth Distance (km) Brightness Sun altitude
Rises 04:29:59 0° 344° (NNW) 3,227 7.2 -19.9°
Reaches altitude 10° 04:32:24 10° 348° (NNW) 2,297 6.5 -19.4°
Maximum altitude 04:37:33 60° 68° (ENE) 867 4.5 -18.5°
Drops below altitude 10° 04:42:40 10° 148° (SSE) 2,285 6.7 -17.5°
Sets 04:45:03 0° 152° (SSE) 3,208 7.4 -17.1°
